Location: Kergrach
(48.3833°N, 4.5167°W)
Time: 17:32:41
(UTC+00:00)

USA 215 - Pass Details

Date: 18 February 2020
Orbit: 1098 x 1110 km, 123.0° (Epoch: 08 March)

Event Time Altitude Azimuth Distance (km) Brightness Sun altitude
Rises 05:56:17 0° 74° (ENE) 3,917 7.7 -14.7°
Reaches altitude 10° 05:58:54 10° 67° (ENE) 2,961 6.6 -14.3°
Maximum altitude 06:04:56 42° 360° (N) 1,531 4.0 -13.3°
Enters shadow 06:10:15 13° 295° (WNW) 2,710 4.7 -12.4°
